Location: Coopersdale
(40.3556°N, 78.9372°W)
Time: 09:23:12
(UTC+00:00)

Envisat - Pass Details

Date: 01 December 2020
Orbit: 764 x 766 km, 98.1° (Epoch: 15 January)

Event Time Altitude Azimuth Distance (km) Brightness Sun altitude
Rises 10:20:38 0° 24° (NNE) 3,240 6.4 -22.2°
Reaches altitude 10° 10:23:15 10° 36° (NE) 2,309 5.8 -21.7°
Maximum altitude 10:27:38 29° 95° (E) 1,390 5.1 -20.9°
Drops below altitude 10° 10:31:58 10° 155° (SSE) 2,294 5.9 -20.1°
Sets 10:34:33 0° 166° (SSE) 3,215 6.6 -19.6°
